Wind_Speed
9 9 8 8 9 10 10 10 10 10 11 11 11 11 11 11 11 12 12 12 13 12 12 13 13 13 14 14 14 14 15 15 15 15 15 16 16 16 16 16 16 16 17 16
9 9 9 10 10 11 11 11 11 11 12 12 12 13 13 13 13 13 13 13 13 13 14 14 14 14 14 15 15 15 15 15 15 15 16 16 17 17 17 17 17 17 17 17
10 10 10 11 11 12 12 12 12 12 12 13 14 14 13 13 13 14 14 14 14 15 15 15 15 15 15 15 15 15 16 16 16 17 17 17 18 18 18 18 18 18 18 18
11 11 12 13 13 13 13 13 13 14 14 14 15 14 12 12 13 14 15 15 15 16 16 16 16 16 16 17 17 17 17 17 18 18 18 18 18 18 19 19 19 19 19 19
13 13 13 14 13 14 13 14 14 15 15 15 15 16 13 13 13 14 15 16 16 16 16 17 17 17 17 18 18 18 19 18 19 19 19 19 19 20 20 20 20 20 19 20
13 14 14 14 15 15 15 16 16 16 16 16 16 17 15 14 14 15 16 17 17 17 17 18 18 18 18 18 19 19 20 20 20 20 20 20 20 20 21 21 21 22 21 21
14 14 15 15 15 16 16 17 18 19 19 18 17 18 17 17 17 17 18 18 19 18 19 19 19 19 19 19 20 20 21 21 21 21 21 21 21 21 22 22 22 22 22 22
15 15 16 16 16 17 17 18 19 21 21 20 19 19 18 18 19 19 20 20 20 20 20 20 20 20 20 20 20 21 21 22 21 21 21 21 22 22 23 23 23 23 22 22
16 16 16 17 18 18 19 20 20 21 22 21 21 20 19 20 21 21 21 21 22 22 21 21 21 21 21 22 22 22 22 22 21 21 22 22 23 23 23 23 23 23 23 23
17 17 17 18 18 19 20 20 21 22 23 23 22 20 20 20 21 22 22 22 22 22 23 23 23 23 23 23 23 23 22 22 22 22 23 23 23 23 23 24 24 24 24 24
18 18 18 18 19 19 20 21 22 23 23 24 24 22 22 22 23 23 23 23 24 24 24 24 24 24 23 23 23 24 24 23 23 24 24 24 24 24 24 25 25 25 25 24
19 19 19 19 20 20 22 22 22 24 24 25 26 24 24 24 24 24 24 25 25 25 25 25 25 25 25 24 25 25 25 25 25 25 25 25 25 25 26 26 27 27 26 25
20 20 21 21 21 21 22 22 23 25 25 26 27 26 25 26 26 26 26 26 26 26 26 26 26 26 26 25 26 26 26 27 26 26 26 26 26 26 27 28 27 27 27 26
21 22 23 23 23 23 24 24 25 26 27 27 27 27 26 28 28 27 27 27 27 27 26 26 27 27 27 27 27 26 27 27 27 27 27 27 27 27 27 27 27 27 27 26
23 23 24 24 24 25 25 25 26 27 28 29 28 28 28 29 28 28 28 28 28 27 27 27 28 28 28 27 27 27 27 27 27 27 26 26 27 27 27 27 27 27 27 27
24 25 25 25 25 25 25 26 27 28 28 29 29 28 28 29 29 29 29 29 28 28 28 28 27 28 28 27 27 27 27 27 27 27 28 27 27 27 27 27 27 27 27 28
26 27 27 27 26 27 27 27 28 29 29 30 30 29 29 29 29 29 28 28 27 27 27 28 27 27 27 27 27 28 28 28 28 27 28 28 28 27 27 27 27 27 27 28
26 27 28 28 28 28 27 27 29 29 29 30 30 30 29 29 28 27 27 27 27 27 27 27 27 27 27 27 27 27 27 27 27 27 28 28 28 28 27 27 27 27 28 28
27 27 28 29 30 29 28 28 29 29 28 28 29 29 28 28 27 26 27 27 27 26 26 26 26 26 26 26 26 27 27 26 26 27 27 28 28 28 28 28 28 28 28 28
28 28 29 30 30 30 29 28 29 29 28 28 29 29 28 28 27 26 26 26 27 27 27 26 27 27 26 26 27 27 26 26 26 26 27 27 28 28 28 29 29 29 29 29
28 29 29 30 31 30 28 28 28 28 28 28 28 28 28 28 27 27 26 26 27 27 26 27 27 27 27 27 27 27 27 27 26 27 27 27 27 27 28 29 29 30 30 30
29 30 30 30 30 28 28 28 28 28 28 28 28 28 28 28 28 28 27 27 27 27 27 27 28 27 27 28 27 27 27 27 27 27 27 27 27 28 28 29 29 30 30 30
31 31 31 30 29 28 28 28 28 29 29 28 28 28 29 29 29 28 28 28 28 28 28 27 27 27 27 28 28 28 28 28 27 27 27 27 28 28 29 30 30 30 30 30
31 32 31 30 28 28 28 28 29 29 29 29 29 29 29 29 29 29 29 29 29 29 29 28 27 27 27 27 27 27 28 28 28 28 29 30 30 30 30 30 30 30 30 30
32 32 32 31 29 29 29 29 29 30 30 30 30 30 31 31 30 29 29 29 29 30 30 29 28 28 28 28 28 28 28 29 29 29 29 29 29 30 30 30 30 30 30 30
32 32 33 32 31 31 30 30 31 32 32 32 32 32 32 32 31 31 30 30 30 31 30 30 30 29 29 29 29 29 30 30 30 29 29 28 29 29 30 30 30 30 30 29
Wind_Direction
268 270 274 276 276 278 279 280 282 282 276 276 276 276 277 276 279 281 283 285 284 284 284 285 285 284 284 283 283 284 286 287 286 288 291 293 293 293 294 294 294 296 296 295
268 269 273 275 275 276 278 278 282 283 281 277 277 277 277 277 280 283 282 284 284 283 283 283 284 285 284 284 285 286 288 288 286 287 288 289 291 292 292 293 294 295 295 292
275 272 272 275 276 276 279 281 282 283 283 280 279 279 280 280 281 281 281 282 284 283 283 284 285 285 284 285 285 286 289 289 287 285 285 286 288 290 292 292 293 293 294 292
274 274 273 276 277 279 281 284 282 282 284 284 284 282 283 285 285 283 284 284 286 286 284 284 284 284 283 284 284 285 286 288 287 286 284 285 287 288 288 288 289 291 292 294
273 274 274 276 278 281 283 283 286 286 286 285 286 287 288 289 287 287 287 287 287 285 285 285 284 283 282 282 284 286 285 285 286 285 284 284 284 285 286 286 287 289 290 291
274 275 276 278 280 281 283 283 284 287 287 286 289 289 290 291 291 291 289 289 289 288 287 287 286 283 282 282 283 286 285 284 283 283 282 281 283 284 284 285 286 287 288 288
274 276 278 280 279 280 282 285 285 287 288 289 290 289 292 291 290 291 292 292 290 290 289 288 287 285 282 282 284 284 285 284 284 283 283 282 283 284 284 284 285 286 286 286
275 278 280 279 279 280 282 285 287 289 290 288 287 290 293 289 289 290 291 292 292 291 289 287 286 285 283 283 283 283 284 284 285 284 285 285 284 285 284 283 283 284 284 283
275 278 278 278 279 281 282 283 286 288 288 288 289 291 291 289 288 289 291 292 292 292 290 287 286 284 283 282 282 282 283 283 284 285 286 287 285 285 285 284 284 285 285 283
273 275 277 278 279 279 280 283 284 286 287 290 290 292 293 290 291 291 290 291 291 291 290 288 287 286 283 282 281 281 282 282 283 284 285 286 285 287 287 287 286 285 285 284
274 276 278 278 277 276 277 279 281 283 285 288 290 292 294 294 294 294 293 292 291 290 289 287 285 286 284 281 280 280 279 280 283 284 284 285 285 284 286 288 286 285 284 284
277 277 278 278 278 277 279 279 280 282 284 286 288 292 294 293 293 293 292 291 290 289 290 288 286 285 283 281 281 280 279 279 280 282 283 283 283 284 285 287 286 285 285 284
278 277 278 279 278 279 280 280 280 282 284 286 289 293 293 292 292 291 290 290 290 289 289 289 286 283 283 282 283 282 280 279 280 280 280 282 283 284 285 287 285 284 284 282
278 278 279 281 281 281 281 281 281 282 283 285 289 291 292 291 290 290 289 289 289 288 287 287 285 284 283 284 285 284 281 279 280 280 280 282 283 284 285 285 285 283 282 281
280 278 279 280 281 281 282 282 281 283 285 287 289 290 292 292 291 290 290 289 289 288 287 286 285 284 284 284 284 284 283 281 281 281 282 283 283 284 284 284 284 283 282 281
280 280 281 279 280 282 282 283 284 285 286 289 290 291 290 291 290 289 289 289 289 288 287 287 286 286 285 284 285 285 285 283 282 281 282 283 285 285 285 284 284 283 282 281
281 281 282 282 281 282 281 283 284 285 288 289 291 291 288 287 288 289 289 288 288 287 287 287 287 287 286 285 285 285 285 284 282 281 281 283 285 286 286 286 285 283 283 282
281 282 283 284 283 281 285 284 286 287 288 289 290 290 288 288 288 288 288 286 287 287 288 288 288 288 286 286 287 287 286 285 284 282 283 284 285 286 286 287 286 284 283 282
280 281 283 284 284 285 286 287 287 288 289 290 290 290 289 287 286 287 288 288 288 288 289 290 290 290 289 287 287 288 287 285 285 284 284 285 285 285 286 285 284 283 283 283
280 281 283 284 285 287 289 289 289 289 289 291 291 290 289 288 287 288 288 289 289 289 290 291 291 290 289 289 288 287 287 286 286 285 285 284 284 287 288 288 287 286 285 285
278 280 282 284 285 287 290 290 290 289 291 290 290 289 288 287 287 288 290 290 290 290 290 290 289 289 289 289 288 287 287 286 285 284 284 284 286 289 291 291 290 289 287 286
279 281 283 285 285 287 288 288 288 289 289 290 288 287 286 285 286 288 289 290 290 291 291 290 289 288 288 288 288 288 287 286 284 283 284 286 288 290 292 293 292 290 290 288
278 280 281 282 284 285 286 286 287 288 289 289 288 288 286 285 285 287 288 288 289 289 290 291 289 289 289 288 289 290 289 288 286 285 286 287 288 289 292 293 292 290 290 289
277 277 278 280 282 282 283 285 286 287 288 289 287 287 286 285 285 287 288 287 288 288 289 289 288 288 288 289 289 290 290 289 287 286 287 287 287 288 291 291 292 292 291 289
277 277 277 278 279 280 281 282 284 285 286 287 285 285 285 284 285 286 287 288 288 288 288 288 287 285 286 286 288 290 289 289 289 289 288 289 290 289 290 291 293 294 293 292
276 278 277 277 277 277 278 279 281 283 285 286 285 284 285 286 286 286 287 287 287 286 286 286 285 284 284 285 286 287 288 288 288 288 288 289 291 291 292 293 295 296 296 294
Height
5849 5850 5849 5849 5849 5849 5848 5848 5848 5848 5848 5847 5847 5847 5847 5846 5845 5844 5844 5843 5842 5841 5841 5840 5840 5839 5839 5838 5837 5836 5835 5834 5833 5832 5831 5830 5829 5827 5826 5825 5823 5822 5821 5819
5848 5848 5848 5847 5847 5847 5846 5846 5845 5845 5845 5845 5844 5844 5844 5843 5842 5842 5841 5840 5839 5838 5837 5837 5836 5835 5835 5834 5833 5832 5831 5830 5829 5828 5827 5826 5825 5824 5822 5821 5820 5818 5817 5815
5845 5846 5845 5845 5845 5845 5844 5844 5843 5842 5842 5841 5841 5841 5841 5840 5838 5838 5837 5836 5835 5835 5834 5833 5832 5831 5831 5830 5829 5828 5827 5826 5825 5824 5823 5822 5820 5819 5818 5817 5815 5814 5813 5811
5843 5843 5843 5842 5842 5842 5842 5841 5840 5839 5838 5838 5838 5837 5838 5836 5835 5834 5833 5832 5832 5831 5830 5829 5828 5827 5826 5826 5825 5824 5823 5822 5821 5819 5818 5817 5816 5815 5814 5812 5811 5809 5808 5807
5840 5840 5840 5840 5840 5839 5839 5838 5837 5836 5835 5835 5834 5833 5835 5832 5831 5830 5829 5828 5827 5827 5826 5825 5824 5823 5822 5821 5820 5819 5818 5817 5816 5814 5813 5812 5811 5810 5808 5807 5806 5804 5803 5801
5837 5837 5837 5837 5836 5836 5835 5835 5834 5832 5832 5832 5831 5830 5830 5829 5827 5826 5825 5824 5823 5822 5821 5820 5819 5818 5817 5816 5815 5814 5813 5811 5810 5809 5808 5806 5805 5804 5802 5801 5800 5798 5797 5796
5834 5834 5834 5833 5833 5832 5832 5831 5830 5829 5828 5828 5827 5826 5827 5825 5823 5822 5821 5819 5818 5817 5816 5815 5814 5812 5811 5810 5809 5808 5807 5805 5804 5802 5801 5800 5799 5797 5796 5795 5794 5792 5791 5789
5830 5831 5830 5829 5829 5829 5828 5827 5827 5825 5824 5823 5822 5822 5823 5820 5818 5817 5816 5814 5813 5811 5810 5809 5808 5807 5805 5804 5803 5802 5800 5799 5798 5796 5795 5794 5792 5791 5789 5788 5787 5785 5784 5783
5826 5827 5826 5825 5824 5824 5823 5823 5822 5821 5819 5818 5817 5818 5817 5815 5814 5812 5810 5809 5807 5806 5804 5803 5801 5800 5799 5798 5796 5795 5794 5793 5791 5790 5789 5787 5785 5784 5782 5781 5780 5778 5777 5776
5822 5822 5822 5821 5820 5820 5819 5818 5817 5815 5814 5812 5812 5812 5812 5810 5808 5807 5805 5803 5801 5800 5798 5796 5794 5793 5792 5791 5790 5788 5787 5786 5785 5784 5782 5780 5778 5777 5775 5774 5772 5771 5770 5769
5817 5817 5817 5816 5815 5815 5814 5813 5812 5810 5809 5808 5806 5809 5806 5804 5802 5801 5799 5797 5795 5793 5791 5789 5788 5786 5785 5784 5782 5781 5780 5779 5778 5777 5775 5773 5771 5770 5768 5767 5765 5763 5762 5761
5812 5812 5811 5811 5810 5809 5808 5808 5807 5806 5804 5802 5801 5804 5800 5798 5796 5794 5792 5790 5788 5786 5784 5782 5780 5779 5778 5777 5775 5774 5773 5772 5771 5770 5768 5766 5764 5763 5761 5759 5757 5756 5754 5753
5807 5806 5806 5805 5807 5805 5803 5802 5801 5800 5798 5797 5795 5798 5793 5791 5789 5787 5785 5782 5780 5778 5776 5774 5773 5771 5770 5769 5767 5766 5765 5764 5763 5761 5760 5758 5757 5755 5753 5751 5749 5747 5746 5745
5801 5800 5801 5800 5799 5798 5797 5796 5795 5793 5792 5791 5790 5789 5787 5784 5782 5780 5777 5775 5773 5771 5769 5767 5765 5763 5762 5761 5759 5758 5756 5755 5754 5753 5751 5750 5749 5747 5745 5743 5741 5739 5738 5737
5795 5794 5794 5793 5792 5791 5790 5789 5788 5787 5785 5784 5783 5781 5779 5776 5774 5772 5770 5767 5765 5763 5761 5759 5757 5755 5754 5752 5751 5749 5748 5747 5745 5744 5743 5742 5740 5738 5737 5735 5733 5731 5730 5729
5788 5788 5787 5787 5785 5784 5783 5783 5781 5779 5778 5776 5774 5773 5771 5768 5766 5764 5762 5759 5757 5755 5753 5751 5749 5747 5746 5744 5743 5741 5740 5738 5737 5736 5735 5733 5732 5730 5728 5726 5725 5723 5722 5721
5782 5781 5780 5780 5779 5777 5777 5777 5774 5773 5771 5769 5767 5766 5763 5760 5758 5756 5754 5751 5749 5748 5745 5743 5742 5740 5738 5736 5735 5733 5731 5730 5729 5728 5726 5725 5723 5722 5720 5718 5717 5715 5714 5713
5775 5774 5772 5772 5772 5770 5773 5769 5767 5765 5764 5761 5759 5757 5755 5752 5750 5748 5746 5744 5742 5740 5738 5736 5734 5732 5730 5728 5727 5725 5723 5722 5721 5719 5718 5717 5715 5713 5712 5710 5708 5707 5706 5704
5768 5767 5765 5764 5763 5762 5764 5762 5759 5757 5757 5754 5751 5749 5747 5745 5743 5742 5739 5737 5735 5733 5731 5729 5727 5725 5723 5721 5719 5718 5716 5714 5713 5712 5710 5708 5707 5705 5703 5702 5701 5699 5697 5696
5760 5759 5759 5757 5755 5754 5757 5754 5751 5750 5749 5747 5744 5741 5739 5737 5736 5735 5733 5730 5727 5725 5724 5722 5720 5718 5716 5714 5712 5710 5708 5707 5706 5704 5702 5701 5699 5697 5695 5693 5692 5690 5689 5687
5753 5752 5751 5749 5747 5747 5748 5745 5743 5743 5742 5739 5736 5734 5732 5730 5728 5727 5725 5723 5720 5718 5716 5715 5712 5710 5708 5707 5705 5702 5701 5699 5698 5696 5694 5693 5691 5689 5686 5684 5683 5681 5679 5678
5745 5744 5743 5741 5740 5742 5739 5737 5736 5735 5732 5730 5728 5726 5724 5722 5721 5719 5717 5715 5713 5711 5709 5707 5705 5703 5701 5699 5697 5695 5693 5692 5690 5688 5686 5685 5683 5681 5678 5676 5674 5672 5670 5668
5736 5736 5735 5735 5735 5733 5731 5729 5727 5725 5724 5722 5720 5718 5716 5715 5713 5711 5709 5707 5706 5704 5701 5699 5697 5695 5693 5691 5689 5687 5686 5684 5682 5680 5678 5676 5675 5672 5670 5667 5665 5663 5661 5658
5728 5726 5726 5725 5726 5724 5723 5721 5719 5717 5715 5713 5711 5710 5708 5706 5705 5703 5701 5699 5697 5695 5693 5691 5689 5687 5686 5684 5681 5680 5678 5676 5674 5672 5670 5668 5666 5664 5661 5659 5656 5654 5651 5648
5719 5717 5716 5716 5717 5715 5715 5713 5711 5709 5707 5705 5703 5701 5700 5698 5697 5695 5693 5691 5689 5687 5685 5683 5681 5679 5677 5676 5674 5672 5670 5668 5666 5664 5662 5660 5658 5655 5653 5650 5647 5645 5642 5639
5710 5708 5707 5707 5707 5705 5705 5704 5702 5700 5698 5696 5695 5693 5691 5689 5688 5686 5684 5682 5680 5678 5676 5674 5672 5670 5669 5667 5665 5663 5661 5659 5657 5656 5654 5652 5649 5647 5644 5641 5639 5635 5632 5629